Location: Sungai Dangang
(2.7500°N, 113.8333°E)
Time: 00:56:06
(UTC+00:00)

Ariane H10+ - Pass Details

Date: 01 October 2021
Orbit: 237 x 7755 km, 6.8° (Epoch: 21 October)

Event Time Altitude Azimuth Distance (km) Brightness Sun altitude
Rises 11:07:31 0° 267° (W) 4,487 8.0 -13.4°
Reaches altitude 10° 11:12:11 10° 257° (WSW) 2,486 6.0 -14.6°
Maximum altitude 11:16:34 27° 198° (SSW) 907 2.6 -15.7°
Enters shadow 11:17:57 19° 152° (SSE) 982 2.4 -16.0°
